Weather History for Rome Ciampino, Italy

Change the Weather History Date:

Thursday, January 31, 2013

  Actual Average Record
Temperature  
Mean Temperature 52 °F -  
Max Temperature 62 °F 55 °F 62 °F (2006)
Min Temperature 42 °F 38 °F 28 °F (1999)
Degree Days  
Heating Degree Days 13    
Growing Degree Days 2 (Base 50)    
Moisture  
Dew Point 46 °F    
Average Humidity 80    
Maximum Humidity 94    
Minimum Humidity 52    
Precipitation  
Precipitation 0.00 in 0.13 in - ()
Sea Level Pressure  
Sea Level Pressure 30.15 in    
Wind  
Wind Speed 3 mph ()    
Max Wind Speed 10 mph    
Max Gust Speed -    
Visibility 6.1 miles    
Events      
Averages and records for this station are not official NWS values.
T = Trace of Precipitation, MM = Missing Value Source: Averaged Metar Reports

Daily Weather History Graph

Daily Weather History Graph

Search for Another Location

Airport:

Trip Planner

Search our weather history database for the weather conditions in past years. The results will help you decide how hot, cold, wet, or windy it might be!

Date:

Astronomy

Jan. 31, 2013 Rise Set
Actual Time 7:23 AM CET 5:23 PM CET
Civil Twilight 6:53 AM CET 5:53 PM CET
Nautical Twilight 6:20 AM CET 6:26 PM CET
Astronomical Twilight 5:47 AM CET 6:59 PM CET
Moon 10:13 PM CET (1/31) 9:08 AM CET (1/31)
Length of Visible Light 10h 59m
Length of Day
10h 00m
Waning Gibbous, 82% of the Moon is Illuminated
Jan 31
Waning Gibbous
Feb 3
Last Quarter
Feb 10
New
Feb 17
First Quarter
Feb 25
Full

Hourly Weather History & Observations

Time (CET) Temp. Dew Point Humidity Pressure Visibility Wind Dir Wind Speed Gust Speed Precip Events Conditions
12:15 AM 51.8 °F 46.4 °F 82% 30.15 in 6.2 mi SSE 4.6 mph - N/A   Mostly Cloudy
12:45 AM 51.8 °F 48.2 °F 88% 30.15 in 6.2 mi SSE 2.3 mph - N/A   Mostly Cloudy
1:15 AM 51.8 °F 48.2 °F 88% 30.15 in 6.2 mi South 2.3 mph - N/A   Mostly Cloudy
1:45 AM 51.8 °F 48.2 °F 88% 30.12 in 6.2 mi South 2.3 mph - N/A   Mostly Cloudy
2:15 AM 51.8 °F 48.2 °F 88% 30.12 in 6.2 mi SE 2.3 mph - N/A   Mostly Cloudy
2:45 AM 50.0 °F 46.4 °F 87% 30.12 in 6.2 mi SE 3.5 mph - N/A   Mostly Cloudy
3:15 AM 50.0 °F 46.4 °F 87% 30.12 in 6.2 mi SSE 4.6 mph - N/A   Mostly Cloudy
3:45 AM 50.0 °F 46.4 °F 87% 30.09 in 6.2 mi Calm Calm - N/A   Mostly Cloudy
4:15 AM 48.2 °F 46.4 °F 93% 30.09 in 6.2 mi SSW 1.2 mph - N/A   Mostly Cloudy
4:45 AM 48.2 °F 44.6 °F 87% 30.09 in 6.2 mi NNE 1.2 mph - N/A   Scattered Clouds
5:15 AM 46.4 °F 42.8 °F 87% 30.09 in 6.2 mi North 2.3 mph - N/A   Partly Cloudy
5:45 AM 44.6 °F 41.0 °F 87% 30.12 in 6.2 mi Calm Calm - N/A   Partly Cloudy
6:15 AM 42.8 °F 41.0 °F 93% 30.12 in 6.2 mi ESE 1.2 mph - N/A   Partly Cloudy
6:45 AM 42.8 °F 41.0 °F 93% 30.12 in 6.2 mi NNE 2.3 mph - N/A   Partly Cloudy
7:15 AM 42.8 °F 39.2 °F 87% 30.15 in 6.2 mi NE 2.3 mph - N/A   Partly Cloudy
7:45 AM 42.8 °F 39.2 °F 87% 30.15 in 6.2 mi NNE 2.3 mph - N/A   Partly Cloudy
8:15 AM 42.8 °F 39.2 °F 87% 30.15 in 6.2 mi North 2.3 mph - N/A   Partly Cloudy
8:45 AM 44.6 °F 41.0 °F 87% 30.15 in 6.2 mi Calm Calm - N/A   Partly Cloudy
9:15 AM 48.2 °F 44.6 °F 87% 30.15 in 6.2 mi NE 3.5 mph - N/A   Partly Cloudy
9:45 AM 48.2 °F 44.6 °F 87% 30.15 in 6.2 mi NNE 5.8 mph - N/A   Partly Cloudy
10:15 AM 50.0 °F 44.6 °F 82% 30.15 in 6.2 mi NNE 5.8 mph - N/A   Partly Cloudy
10:45 AM 51.8 °F 44.6 °F 76% 30.18 in - NNE 4.6 mph - N/A   Clear
11:15 AM 55.4 °F 46.4 °F 72% 30.18 in - NNW 1.2 mph - N/A   Clear
11:45 AM 55.4 °F 46.4 °F 72% 30.18 in 6.2 mi North 4.6 mph - N/A   Partly Cloudy
12:15 PM 59.0 °F 48.2 °F 67% 30.18 in 6.2 mi NNE 5.8 mph - N/A   Partly Cloudy
12:45 PM 59.0 °F 46.4 °F 63% 30.18 in 6.2 mi North 4.6 mph - N/A   Partly Cloudy
1:15 PM 59.0 °F 44.6 °F 59% 30.18 in 6.2 mi North 5.8 mph - N/A   Partly Cloudy
1:45 PM 60.8 °F 46.4 °F 59% 30.18 in - NNW 3.5 mph - N/A   Clear
2:15 PM 60.8 °F 44.6 °F 55% 30.15 in 6.2 mi NE 2.3 mph - N/A   Scattered Clouds
2:45 PM 59.0 °F 42.8 °F 55% 30.15 in 6.2 mi East 2.3 mph - N/A   Scattered Clouds
3:15 PM 59.0 °F 42.8 °F 55% 30.15 in 6.2 mi SSE 2.3 mph - N/A   Scattered Clouds
3:45 PM 62.6 °F 44.6 °F 52% 30.15 in 6.2 mi South 1.2 mph - N/A   Mostly Cloudy
4:15 PM 62.6 °F 46.4 °F 55% 30.15 in 6.2 mi WSW 5.8 mph - N/A   Mostly Cloudy
4:45 PM 50.0 °F 41.0 °F 71% 30.15 in 6.2 mi SW 5.8 mph - N/A   Scattered Clouds
5:15 PM 57.2 °F 48.2 °F 72% 30.15 in 6.2 mi South 5.8 mph - N/A   Scattered Clouds
5:45 PM 55.4 °F 48.2 °F 77% 30.18 in 6.2 mi South 4.6 mph - N/A   Mostly Cloudy
6:15 PM 55.4 °F 50.0 °F 82% 30.15 in - SSW 4.6 mph - N/A   Clear
6:45 PM 55.4 °F 48.2 °F 77% 30.15 in - SSW 4.6 mph - N/A   Clear
7:15 PM 53.6 °F 48.2 °F 82% 30.15 in - SSW 6.9 mph - N/A   Clear
7:45 PM 51.8 °F 48.2 °F 88% 30.15 in - SSW 8.1 mph - N/A   Clear
8:15 PM 51.8 °F 48.2 °F 88% 30.15 in - SSW 9.2 mph - N/A   Clear
8:45 PM 51.8 °F 48.2 °F 88% 30.15 in 6.2 mi SSW 9.2 mph - N/A   Partly Cloudy
9:15 PM 51.8 °F 50.0 °F 94% 30.15 in - South 10.4 mph - N/A   Clear
9:45 PM 51.8 °F 48.2 °F 88% 30.15 in 5.0 mi SSW 10.4 mph - N/A   Partly Cloudy
10:15 PM 51.8 °F 48.2 °F 88% 30.15 in 4.3 mi South 6.9 mph - N/A   Partly Cloudy
10:45 PM 51.8 °F 48.2 °F 88% 30.15 in 5.0 mi SSE 6.9 mph - N/A   Unknown
11:15 PM 51.8 °F 46.4 °F 82% 30.15 in 6.2 mi SSE 3.5 mph - N/A   Partly Cloudy
11:45 PM 50.0 °F 44.6 °F 82% 30.15 in 6.2 mi SSE 3.5 mph - N/A   Partly Cloudy